202 visiteurs
Prévisions de votre ville :
Vigilance : 73 départements 11 départements Mise à jour le 14/12/2019 à 16:10 - Voir la carte

Paris Roissy CDG (95380) le 15/12/2019 à 03:00 Choisir station

11°C 76 % SO Vit. moyenne 39 kmh/h

Relevés météo quotidiens pour la station de :

UTC
S: Synop
M: Metar
Loc T°C
(°C)
Td
(°C)
HR
(%)
Vis
(km)
Néb
(octa)
Vent
(km/h)
Pression
(mb)
Précipitations
(mm)
Temps
              MOY
10 min
DIR RAF 1h MESURE VAR SUR 3h    
S 00 h 02h 19.0 7.4 47 - 19 41 1019.5 +0.3/3h 0.0/6h - 0.0/3h -
S 01 h 03h 18.5 7.9 50 - 17 39 1019.3 -0.3/3h 0.0/1h -
S 03 h 05h 18.0 8.3 53 22 5/8 11 30 1018.7 -0.8/3h 0.0/3h
S 04 h 06h 17.5 7.8 53 - 11 26 1018.7 -0.7/3h 0.0/1h -
S 05 h 07h 17.2 8.1 55 - 13 24 1018.9 -0.2/3h 0.0/1h -
S 06 h 08h 18.9 8.5 51 22 1/8 6 24 1018.9 +0.2/3h 0.0/12h - 0.0/3h - 0.0/24h
S 07 h 09h 20.9 8.5 45 - 17 31 1018.9 +0.3/3h 0.0/1h -
S 08 h 10h 23.1 7.6 37 - 20 44 1018.8 0.0/3h 0.0/1h -
S 09 h 11h 24.5 7.6 34 30 3/8 26 48 1018.5 -0.3/3h 0.0/3h
S 10 h 12h 25.9 7.5 31 - 24 43 1018.0 -0.8/3h 0.0/1h -
S 11 h 13h 27.4 7.3 28 - 22 50 1017.7 -1.0/3h 0.0/1h -
S 12 h 14h 27.9 6.0 25 30 2/8 20 46 1017.4 -1.1/3h 0.0/6h - 0.0/3h
S 13 h 15h 29.4 6.1 23 - 20 50 1016.6 -1.4/3h 0.0/1h -
S 14 h 16h 29.7 5.7 22 - 22 48 1016.1 -1.6/3h 0.0/1h -
S 15 h 17h 30.3 6.2 22 30 3/8 26 61 1015.4 -1.9/3h 0.0/3h
S 16 h 18h 30.2 6.1 22 - 26 54 1015.1 -1.4/3h 0.0/1h -
S 17 h 19h 29.3 5.4 22 - 26 52 1015.5 -0.6/3h 0.0/1h -
S 18 h 20h 27.7 6.4 26 - 24 52 1015.9 +0.4/3h 0.0/12h - 0.0/3h -
S 19 h 21h 26.3 6.8 29 - 15 43 1016.3 +1.1/3h 0.0/1h -
S 20 h 22h 25.0 8.0 34 - 13 33 1016.8 +1.3/3h 0.0/1h -
S 21 h 23h 23.9 7.9 36 - 6 24 1017.4 +1.5/3h 0.0/3h -
S 22 h 00h 23.6 8.4 38 - 9 15 1018.1 +1.7/3h 0.0/1h -
S 23 h 01h 24.2 8.6 37 - 17 33 1018.0 +1.2/3h 0.0/1h -
evolution des temperatures
cumul des precipitations
vent moyen et rafales
pression atmospherique

Un tiret (-) signifie que les données ne sont pas disponibles.

Passez la souris sur les pictos temps pour avoir plus de précisions. Passez les flèches sur l'icône de la direction du vent pour voir la direction précise en degrés.

Les données de l'heure en cours sont disponibles à partir de H+15 minutes.


S signifie station Synop, plus complète qu'une station Metar (M). Il y a +1h de différence entre l'heure UTC et l'heure légale en hiver et +2h en été.

Td est la mesure du point de rosée.

HR est l'humidité relative/p>

Vis est la visibilité

Néb est la nébulosité du ciel (couverture nuageuse) exprimée en octas (de 0/8 à 8/8).

Vent moy 10 min donne le vent moyen sur les 10 minutes qui précèdent le relevé.

Vent raf 1h donne la rafale maximale mesurée dans l'heure qui précède le relevé.


Les données les plus anciennes remontent à avril 2014.

Les données présentées sur cette page proviennent des stations météo officielles. Les relevés sont effectués aux normes en vigueur (anémomètre à 10m de haut, thermomètre sous abri normalisé à 2m du sol...)

Météo 60 décline toute responsabilité en cas d'absence de données, d'erreurs, de mauvaise utilisation ou interprétation et n'est pas habilité à fournir des certificats intempéries.